| time (UTC) | temp F | wind direction | speed knots | gust knots | rain 1hr in | rain 24hr in | rain mn in | humidity % | barometer mb |
| 20260503194512 | 81 | 343 | 1.7 | 5.2 | 0.00 | 0.00 | 0.00 | 26 | 1010.5 |
| 20260503193007 | 80 | 26 | 1.7 | 6.1 | 0.00 | 0.00 | 0.00 | 28 | 1010.6 |
| 20260503191503 | 79 | 48 | 0.9 | 6.1 | 0.00 | 0.00 | 0.00 | 28 | 1010.8 |
| 20260503190100 | 78 | 54 | 0.0 | 1.7 | 0.00 | 0.00 | 0.00 | 33 | 1011.0 |
| 20260503184630 | 77 | 55 | 0.0 | 2.6 | 0.00 | 0.00 | 0.00 | 33 | 1011.1 |
| 20260503183104 | 77 | 53 | 0.9 | 2.6 | 0.00 | 0.00 | 0.00 | 33 | 1011.3 |
| 20260503181551 | 75 | 38 | 0.0 | 3.5 | 0.00 | 0.00 | 0.00 | 36 | 1011.4 |
| 20260503180046 | 73 | 43 | 0.9 | 3.5 | 0.00 | 0.00 | 0.00 | 38 | 1011.5 |
| 20260503174600 | 72 | 98 | 0.9 | 7.0 | 0.00 | 0.00 | 0.00 | 39 | 1011.5 |
| 20260503173043 | 71 | 97 | 1.7 | 7.8 | 0.00 | 0.00 | 0.00 | 37 | 1011.6 |
| 20260503171540 | 71 | 73 | 0.9 | 4.3 | 0.00 | 0.00 | 0.00 | 43 | 1011.7 |
| 20260503081558 | 60 | 128 | 0.0 | 2.6 | 0.00 | 0.00 | 0.00 | 68 | 1012.7 |
| 20260503071608 | 60 | 127 | 2.6 | 4.3 | 0.00 | 0.00 | 0.00 | 68 | 1012.9 |
| 20260503070106 | 61 | 134 | 0.9 | 4.3 | 0.00 | 0.00 | 0.00 | 67 | 1012.8 |
| 20260503054641 | 60 | 160 | 2.6 | 4.3 | 0.00 | 0.00 | 0.00 | 66 | 1012.9 |
| 20260503053040 | 61 | 175 | 0.0 | 0.0 | 0.00 | 0.00 | 0.00 | 65 | 1012.6 |
| 20260503051547 | 61 | 175 | 0.0 | 0.0 | 0.00 | 0.00 | 0.00 | 64 | 1012.7 |
| 20260503050034 | 62 | 175 | 0.0 | 0.0 | 0.00 | 0.00 | 0.00 | 64 | 1012.9 |
| 20260503044532 | 62 | 175 | 0.0 | 0.0 | 0.00 | 0.00 | 0.00 | 62 | 1013.1 |
| 20260503043031 | 63 | 182 | 0.0 | 0.0 | 0.00 | 0.00 | 0.00 | 62 | 1012.9 |
| 20260503041533 | 63 | 237 | 0.0 | 0.0 | 0.00 | 0.00 | 0.00 | 62 | 1013.1 |
| 20260503040026 | 63 | 237 | 0.0 | 0.0 | 0.00 | 0.00 | 0.00 | 61 | 1013.0 |
| 20260503034527 | 63 | 237 | 0.0 | 0.0 | 0.00 | 0.00 | 0.00 | 61 | 1013.0 |
| 20260503033025 | 63 | 237 | 0.0 | 2.6 | 0.00 | 0.00 | 0.00 | 61 | 1012.9 |
| 20260503031529 | 64 | 240 | 0.0 | 1.7 | 0.00 | 0.00 | 0.00 | 60 | 1012.8 |
| 20260503030026 | 65 | 239 | 0.0 | 4.3 | 0.00 | 0.00 | 0.00 | 57 | 1012.8 |
| 20260503024517 | 66 | 248 | 1.7 | 8.7 | 0.00 | 0.00 | 0.00 | 56 | 1012.5 |
| 20260503023015 | 67 | 265 | 1.7 | 7.0 | 0.00 | 0.00 | 0.00 | 57 | 1012.4 |
| 20260503021515 | 67 | 255 | 1.7 | 3.5 | 0.00 | 0.00 | 0.00 | 57 | 1012.2 |
| 20260503020014 | 67 | 256 | 0.0 | 0.0 | 0.00 | 0.00 | 0.00 | 58 | 1011.9 |
| 20260503014510 | 67 | 256 | 0.0 | 0.0 | 0.00 | 0.00 | 0.00 | 57 | 1011.7 |
| 20260503013025 | 68 | 256 | 0.0 | 0.0 | 0.00 | 0.00 | 0.00 | 56 | 1011.6 |
| 20260503011510 | 69 | 256 | 0.0 | 0.0 | 0.00 | 0.00 | 0.00 | 55 | 1011.7 |
| 20260503010009 | 70 | 256 | 0.0 | 0.0 | 0.00 | 0.00 | 0.00 | 53 | 1011.6 |
| 20260503004506 | 70 | 256 | 0.0 | 0.0 | 0.00 | 0.00 | 0.00 | 52 | 1011.8 |
| 20260503003005 | 71 | 256 | 0.0 | 0.0 | 0.00 | 0.00 | 0.00 | 52 | 1011.7 |
| 20260503001504 | 70 | 256 | 0.0 | 0.0 | 0.00 | 0.00 | 0.00 | 51 | 1011.7 |
| 20260503000001 | 69 | 256 | 0.0 | 2.6 | 0.00 | 0.00 | 0.00 | 52 | 1011.7 |
| 20260502234615 | 69 | 267 | 1.7 | 3.5 | 0.00 | 0.00 | 0.00 | 50 | 1011.8 |
| 20260502233059 | 69 | 256 | 1.7 | 4.3 | 0.00 | 0.00 | 0.00 | 50 | 1011.9 |
| 20260502231556 | 70 | 264 | 1.7 | 6.1 | 0.00 | 0.00 | 0.00 | 50 | 1012.1 |
| 20260502230059 | 68 | 254 | 1.7 | 7.0 | 0.00 | 0.00 | 0.00 | 51 | 1012.2 |
| 20260502224548 | 69 | 256 | 0.9 | 3.5 | 0.00 | 0.00 | 0.00 | 49 | 1012.5 |
| 20260502223058 | 69 | 261 | 1.7 | 6.1 | 0.00 | 0.00 | 0.00 | 52 | 1012.8 |
| 20260502221542 | 67 | 279 | 0.9 | 3.5 | 0.00 | 0.00 | 0.00 | 52 | 1013.0 |
| 20260502220039 | 66 | 264 | 1.7 | 4.3 | 0.00 | 0.00 | 0.00 | 53 | 1013.5 |
| 20260502214537 | 66 | 267 | 0.9 | 5.2 | 0.00 | 0.00 | 0.00 | 55 | 1013.6 |
| 20260502213042 | 64 | 260 | 0.9 | 4.3 | 0.00 | 0.00 | 0.00 | 56 | 1013.8 |
| 20260502211534 | 63 | 331 | 0.9 | 4.3 | 0.00 | 0.00 | 0.00 | 56 | 1014.0 |
| 20260502210032 | 63 | 268 | 1.7 | 6.1 | 0.00 | 0.00 | 0.00 | 56 | 1014.4 |
| 20260502204502 | 64 | 260 | 0.9 | 3.5 | 0.00 | 0.00 | 0.00 | 56 | 1014.5 |
| 20260502203120 | 63 | 265 | 0.9 | 3.5 | 0.00 | 0.00 | 0.00 | 55 | 1014.6 |
| 20260502201616 | 61 | 332 | 0.9 | 3.5 | 0.00 | 0.00 | 0.00 | 59 | 1014.7 |